{"data":{"norad_id":68826,"epoch":"2026-05-25T04:26:19.102848Z","epoch_age_seconds":62253,"freshness":"FRESH","line1":"1 68826U 26090A   26145.18494332  .00036479  00000+0  18445-3 0  9992","line2":"2 68826  96.6467  63.6855 0018342 120.6158 239.6924 15.81241864  5037","mean_motion":15.81241864,"eccentricity":0.0018342,"inclination_deg":96.6467,"raan_deg":63.6855,"arg_perigee_deg":120.6158,"mean_anomaly_deg":239.6924,"bstar":0.00018445,"rev_number":503,"period_min":91.067662246008,"perigee_km":314.62925693169,"apogee_km":339.22611622793,"semimajor_km":6705.0646865798,"source":"CELESTRAK","updated_at":"2026-05-25T13:38:08.122979Z"}}